Tracking 27126 objects as of 30-Mar-2023
HD Live streaming from Space Station
objects crossing your sky now

GALILEO-FM4

Track GALILEO-FM4 now!
GALILEO-FM4 is classified as:


NORAD ID: 38858
Int'l Code: 2012-055B
Perigee: 23,220.7 km
Apogee: 23,237.9 km
Inclination: 55.2 °
Period: 844.7 minutes
Semi major axis: 29600 km
RCS: 13.2202 m2 (large)
Launch date: October 12, 2012
Source: European Space Agency (ESA)
Launch site: FRENCH GUIANA (FRGUI)

GALILEO-FM4 is one of the first four Galileo satellites which are part of system's in-orbit validation, or IOV, phase.
Your satellite tracking list
Your tracking list is empty




NASA's NSSDC Master Catalog

Two Line Element Set (TLE):
1 38858U 12055B   23087.16794362  .00000008  00000-0  00000-0 0  9991
2 38858  55.2250 133.8966 0002904 259.3339 100.7035  1.70473924 64944
Source of the keplerian elements: AFSPC